Regional Weather Roundup
Issued by NWS

Home | Current Version | Previous Version | Graphics & Text | Print | Product List | Glossary On
Versions: 1 2 3 4 5 6 7 8 9 10 11 12 13 14 15 16 17 18 19 20 21 22 23 24 25 26 27 28 29 30 31 32 33 34 35 36 37 38 39 40 41 42 43 44 45 46 47 48 49 50
196
ASUS45 KBOI 080510
RWRID

IDAHO REGIONAL WEATHER ROUNDUP
NATIONAL WEATHER SERVICE BOISE ID
1000 PM MST SUN FEB 07 2016

NOTE: "FAIR" INDICATES FEW OR NO CLOUDS BELOW 12000 FEET
WITH NO SIGNIFICANT WEATHER AND/OR OBSTRUCTIONS TO VISIBILITY

IDZ012-014-080600-
SOUTHWEST IDAHO


CITY           SKY/WX    TMP DP  RH WIND       PRES   REMARKS
BOISE          CLEAR     35  32  88 CALM      30.64R
CALDWELL       CLEAR     35  31  85 CALM      30.66R
MOUNTAIN HOME  CLEAR     31  31 100 E8        30.65S WCI  24
$$

IDZ016-017-080600-
SOUTHCENTRAL IDAHO


CITY           SKY/WX    TMP DP  RH WIND       PRES   REMARKS
BURLEY         CLEAR     26  24  92 N5        30.63R WCI  20
JEROME         CLOUDY    33  29  85 N7        30.64S WCI  27
TWIN FALLS     CLEAR     34  31  88 S9        30.63S WCI  27
$$

IDZ019>023-080600-
SOUTHEAST IDAHO


CITY           SKY/WX    TMP DP  RH WIND       PRES   REMARKS
IDAHO FALLS    FOG       22  21  96 N5        30.66R VSB 3/4 WCI  16
POCATELLO      CLOUDY    23  22  96 NE6       30.67R FOG     WCI  16
REXBURG        FOG       24  22  91 CALM      30.64S VSB 3/4
$$

IDZ006-010-011-018-031-032-080600-
CENTRAL IDAHO MOUNTAINS


CITY           SKY/WX    TMP DP  RH WIND       PRES   REMARKS
MCCALL         FOG       21  18  88 CALM      30.62R VSB 1/4
HAILEY         PTCLDY    21  18  86 NW6       30.63R WCI  14
STANLEY          N/A     21  13  71 S5        30.65R WCI  15
SALMON         CLOUDY    12   9  85 E3        30.69R
CHALLIS        CLEAR     18  13  80 CALM      30.65R
$$

IDZ002-004-006-007-026-080600-
NORTHERN IDAHO


CITY           SKY/WX    TMP DP  RH WIND       PRES   REMARKS
LEWISTON       MOCLDY    38  31  76 S3        30.65S
LOWELL           N/A     37  34  89 N3        30.72R
COEUR D`ALENE  CLOUDY    36  28  75 NE8       30.60F WCI  29
MULLAN PASS    MOCLDY    28  16  60 SW9       30.56S WCI  19
$$




USA.gov is the U.S. government's official web portal to all federal, state and local government web resources and services.